South Haven, MI

11:44 AM EST on December 03, 2016 (GMT -0500)
South Haven

Weather History for KLWA - August, 2013

Change the Weather History Date:

Tuesday, August 27, 2013

  Actual Average (KBIV) Record (KBIV)
Temperature  
Mean Temperature 82 °F 70 °F  
Max Temperature 90 °F 80 °F 95 °F (1973)
Min Temperature 73 °F 59 °F 39 °F (1968)
Degree Days  
Heating Degree Days 0 0  
Month to date heating degree days 0  
Since 1 June heating degree days 54  
Since 1 July heating degree days 6  
Cooling Degree Days 16 5  
Month to date cooling degree days 174  
Year to date cooling degree days 597  
Since 1 June cooling degree days 555  
Growing Degree Days 32 (Base 50)    
Moisture  
Dew Point 70 °F    
Average Humidity 68    
Maximum Humidity 90    
Minimum Humidity 46    
Precipitation  
Precipitation 0.00 in 0.12 in 1.00 in (1986)
Month to date precipitation 3.10  
Year to date precipitation 22.74  
Sea Level Pressure  
Sea Level Pressure 29.93 in    
Wind  
Wind Speed 10 mph (SW)    
Max Wind Speed 20 mph    
Max Gust Speed 30 mph    
Visibility 10 miles    
Events      
T = Trace of Precipitation, MM = Missing Value Source: NWS Daily Summary

Daily Weather History Graph

Daily Weather History Graph

Search for Another Location

Airport or City:

Trip Planner

Search our weather history database for the weather conditions in past years. The results will help you decide how hot, cold, wet, or windy it might be!

Date:

Astronomy

Aug. 27, 2013 Rise Set
Actual Time 7:05 AM EDT 8:26 PM EDT
Civil Twilight 6:35 AM EDT 8:56 PM EDT
Nautical Twilight 6:00 AM EDT 9:31 PM EDT
Astronomical Twilight 5:23 AM EDT 10:08 PM EDT
Moon No Moon Rise 2:11 PM EDT (8/27)
Length of Visible Light 14h 20m
Length of Day
13h 21m
Waning Gibbous, 57% of the Moon is Illuminated
Aug 27
Waning Gibbous
Aug 28
Last Quarter
Sep 5
New
Sep 12
First Quarter
Sep 19
Full

Hourly Weather History & Observations

Time (EDT) Temp. Heat Index Dew Point Humidity Pressure Visibility Wind Dir Wind Speed Gust Speed Precip Events Conditions
12:14 AM 80.6 °F 84.1 °F 70.3 °F 71% 30.01 in 10.0 mi SW 10.4 mph 18.4 mph N/A   Clear
12:35 AM 80.8 °F 84.2 °F 70.3 °F 70% 30.00 in 10.0 mi WSW 12.7 mph 18.4 mph N/A   Clear
12:55 AM 80.8 °F 84.2 °F 70.3 °F 70% 30.00 in 10.0 mi WSW 13.8 mph 21.9 mph N/A   Clear
1:14 AM 80.6 °F 83.9 °F 70.2 °F 70% 30.00 in 10.0 mi WSW 12.7 mph 19.6 mph N/A   Clear
1:35 AM 80.2 °F 83.3 °F 69.8 °F 70% 29.99 in 10.0 mi WSW 11.5 mph 20.7 mph N/A   Clear
1:55 AM 80.1 °F 82.9 °F 68.9 °F 69% 29.99 in 10.0 mi WSW 13.8 mph 19.6 mph N/A   Clear
2:15 AM 79.9 °F - 69.1 °F 69% 29.99 in 10.0 mi SW 12.7 mph 19.6 mph N/A   Scattered Clouds
2:35 AM 79.0 °F - 69.8 °F 73% 29.99 in 10.0 mi SW 11.5 mph 17.3 mph N/A   Mostly Cloudy
2:55 AM 78.3 °F - 69.8 °F 75% 29.98 in 10.0 mi SW 10.4 mph 16.1 mph N/A   Scattered Clouds
3:15 AM 77.9 °F - 69.8 °F 76% 29.98 in 10.0 mi SW 9.2 mph 18.4 mph N/A   Clear
3:35 AM 77.5 °F - 70.0 °F 77% 29.97 in 10.0 mi SW 10.4 mph - N/A   Scattered Clouds
3:55 AM 77.4 °F - 70.2 °F 78% 29.97 in 10.0 mi SW 9.2 mph - N/A   Mostly Cloudy
4:15 AM 77.5 °F - 70.2 °F 78% 29.97 in 10.0 mi WSW 9.2 mph - N/A   Overcast
4:35 AM 77.4 °F - 70.2 °F 78% 29.97 in 10.0 mi SW 8.1 mph 17.3 mph N/A   Mostly Cloudy
4:55 AM 77.0 °F - 70.2 °F 79% 29.97 in 10.0 mi WSW 9.2 mph 16.1 mph N/A   Scattered Clouds
5:15 AM 77.0 °F - 70.0 °F 79% 29.96 in 10.0 mi SW 10.4 mph 16.1 mph N/A   Clear
5:35 AM 77.2 °F - 70.0 °F 78% 29.96 in 10.0 mi SW 9.2 mph 17.3 mph N/A   Clear
5:55 AM 77.2 °F - 70.2 °F 79% 29.97 in 10.0 mi SW 9.2 mph - N/A   Mostly Cloudy
6:15 AM 77.2 °F - 70.2 °F 79% 29.97 in 10.0 mi SW 6.9 mph - N/A   Mostly Cloudy
6:35 AM 77.4 °F - 70.3 °F 79% 29.97 in 10.0 mi WSW 6.9 mph - N/A   Mostly Cloudy
6:55 AM 77.2 °F - 70.3 °F 79% 29.97 in 10.0 mi SW 6.9 mph - N/A   Scattered Clouds
7:15 AM 77.2 °F - 70.3 °F 79% 29.99 in 10.0 mi NNW 5.8 mph - N/A   Scattered Clouds
7:34 AM 74.5 °F - 70.2 °F 86% 30.01 in 7.0 mi Calm Calm - N/A   Mostly Cloudy
7:55 AM 73.8 °F - 70.3 °F 89% 30.00 in 7.0 mi South 3.5 mph - N/A   Scattered Clouds
8:15 AM 73.9 °F - 70.7 °F 90% 29.99 in 7.0 mi Calm Calm - N/A   Clear
8:34 AM 74.3 °F - 70.9 °F 89% 29.99 in 7.0 mi South 3.5 mph - N/A   Clear
8:55 AM 74.5 °F - 70.9 °F 88% 29.99 in 7.0 mi Calm Calm - N/A   Clear
9:15 AM 75.4 °F - 71.2 °F 87% 29.98 in 7.0 mi SSW 3.5 mph - N/A   Clear
9:35 AM 76.6 °F - 71.6 °F 84% 29.98 in 7.0 mi SSW 5.8 mph - N/A   Clear
9:55 AM 78.8 °F - 71.6 °F 78% 29.98 in 10.0 mi SSW 5.8 mph - N/A   Clear
10:15 AM 79.3 °F - 71.8 °F 78% 29.97 in 10.0 mi SW 6.9 mph - N/A   Scattered Clouds
10:35 AM 79.7 °F - 72.0 °F 77% 29.98 in 10.0 mi SW 5.8 mph - N/A   Scattered Clouds
10:55 AM 79.9 °F - 71.4 °F 75% 29.97 in 10.0 mi SW 6.9 mph - N/A   Scattered Clouds
11:15 AM 80.2 °F 83.9 °F 71.2 °F 74% 29.97 in 10.0 mi SW 9.2 mph - N/A   Clear
11:35 AM 80.2 °F 83.7 °F 71.1 °F 73% 29.97 in 10.0 mi SW 8.1 mph - N/A   Clear
11:55 AM 80.4 °F 84.1 °F 71.1 °F 73% 29.97 in 10.0 mi WSW 6.9 mph - N/A   Clear
12:15 PM 81.0 °F 85.2 °F 71.8 °F 74% 29.97 in 10.0 mi SW 5.8 mph - N/A   Clear
12:35 PM 81.7 °F 86.0 °F 71.4 °F 71% 29.96 in 10.0 mi SW 5.8 mph - N/A   Clear
12:55 PM 81.7 °F 86.3 °F 72.0 °F 72% 29.96 in 10.0 mi WSW 5.8 mph - N/A   Clear
1:14 PM 82.6 °F 87.8 °F 72.5 °F 71% 29.95 in 10.0 mi SW 4.6 mph - N/A   Clear
1:35 PM 84.2 °F 89.6 °F 71.8 °F 66% 29.95 in 10.0 mi SW 5.8 mph - N/A   Clear
1:55 PM 85.5 °F 90.8 °F 71.1 °F 62% 29.94 in 10.0 mi SW 8.1 mph - N/A   Clear
2:14 PM 85.5 °F 90.1 °F 70.2 °F 60% 29.94 in 10.0 mi SW 11.5 mph 17.3 mph N/A   Clear
2:35 PM 86.2 °F 90.7 °F 70.0 °F 58% 29.93 in 10.0 mi SW 9.2 mph - N/A   Clear
2:54 PM 86.9 °F 91.7 °F 69.8 °F 57% 29.92 in 10.0 mi SW 11.5 mph - N/A   Clear
3:15 PM 87.4 °F 92.7 °F 70.3 °F 57% 29.91 in 10.0 mi SW 10.4 mph - N/A   Clear
3:35 PM 87.6 °F 92.3 °F 69.6 °F 55% 29.90 in 10.0 mi SW 17.3 mph 21.9 mph N/A   Clear
3:54 PM 88.2 °F 92.9 °F 69.4 °F 54% 29.90 in 10.0 mi SW 11.5 mph 20.7 mph N/A   Clear
4:15 PM 89.4 °F 94.4 °F 69.8 °F 52% 29.89 in 10.0 mi SW 12.7 mph 18.4 mph N/A   Clear
4:35 PM 89.8 °F 94.6 °F 69.3 °F 51% 29.89 in 10.0 mi SW 13.8 mph 20.7 mph N/A   Clear
4:55 PM 89.8 °F 93.8 °F 68.5 °F 49% 29.88 in 10.0 mi SW 13.8 mph 21.9 mph N/A   Clear
5:15 PM 90.0 °F 93.6 °F 68.0 °F 48% 29.88 in 10.0 mi SW 15.0 mph 21.9 mph N/A   Clear
5:34 PM 89.6 °F 92.6 °F 67.1 °F 47% 29.87 in 10.0 mi SW 12.7 mph 20.7 mph N/A   Clear
5:55 PM 89.2 °F 92.0 °F 66.4 °F 47% 29.86 in 10.0 mi SW 12.7 mph 23.0 mph N/A   Clear
6:15 PM 89.1 °F 91.3 °F 66.0 °F 46% 29.86 in 10.0 mi SW 13.8 mph 20.7 mph N/A   Clear
6:34 PM 88.7 °F 91.1 °F 66.2 °F 47% 29.86 in 10.0 mi SW 15.0 mph 21.9 mph N/A   Clear
6:55 PM 88.3 °F 90.9 °F 66.2 °F 48% 29.86 in 10.0 mi SW 16.1 mph 21.9 mph N/A   Clear
7:15 PM 87.8 °F 90.4 °F 66.7 °F 49% 29.85 in 10.0 mi SW 13.8 mph 17.3 mph N/A   Clear
7:34 PM 86.9 °F 89.9 °F 67.3 °F 52% 29.85 in 10.0 mi SW 11.5 mph 17.3 mph N/A   Clear
7:55 PM 86.4 °F 89.4 °F 67.5 °F 53% 29.85 in 10.0 mi SW 11.5 mph 16.1 mph N/A   Mostly Cloudy
8:15 PM 86.7 °F 89.9 °F 67.8 °F 53% 29.85 in 10.0 mi SW 15.0 mph 19.6 mph N/A   Overcast
8:34 PM 86.5 °F 90.0 °F 68.4 °F 54% 29.85 in 10.0 mi SW 13.8 mph 19.6 mph N/A   Overcast
8:55 PM 86.4 °F 90.4 °F 68.9 °F 56% 29.85 in 10.0 mi SW 15.0 mph 21.9 mph N/A   Overcast
9:15 PM 86.4 °F 90.7 °F 69.4 °F 57% 29.86 in 10.0 mi SW 13.8 mph 24.2 mph N/A   Overcast
9:34 PM 86.0 °F 90.4 °F 69.8 °F 58% 29.86 in 10.0 mi SW 13.8 mph 24.2 mph N/A   Overcast
9:55 PM 85.8 °F 90.4 °F 70.2 °F 59% 29.86 in 10.0 mi SW 13.8 mph 27.6 mph N/A   Mostly Cloudy
10:15 PM 84.9 °F 89.7 °F 70.7 °F 62% 29.86 in 10.0 mi SW 15.0 mph 25.3 mph N/A   Scattered Clouds
10:35 PM 84.2 °F 89.0 °F 70.7 °F 64% 29.85 in 10.0 mi SW 15.0 mph 25.3 mph N/A   Clear
10:55 PM 83.3 °F 87.9 °F 70.7 °F 66% 29.85 in 10.0 mi SW 16.1 mph 23.0 mph N/A   Clear
11:15 PM 83.5 °F 87.7 °F 70.3 °F 64% 29.83 in 10.0 mi SW 17.3 mph 27.6 mph N/A   Clear
11:35 PM 83.3 °F 87.4 °F 70.0 °F 64% 29.83 in 10.0 mi WSW 19.6 mph 29.9 mph N/A   Scattered Clouds
11:55 PM 82.4 °F 86.3 °F 70.0 °F 66% 29.84 in 10.0 mi SW 16.1 mph 25.3 mph N/A   Mostly Cloudy